Location: Little Maitland River
(43.8022°N, 81.1549°W)
Time: 23:53:31
(UTC+00:00)

Cosmos 1092 Rocket - Pass Details

Date: 09 December 2025
Orbit: 953 x 995 km, 83.0° (Epoch: 19 January)

Event Time Altitude Azimuth Distance (km) Brightness Sun altitude
Rises 10:39:23 0° 179° (S) 3,685 7.2 -22.2°
Reaches altitude 10° 10:41:54 10° 177° (S) 2,736 6.5 -21.7°
Maximum altitude 10:48:09 72° 94° (E) 1,031 4.2 -20.6°
Drops below altitude 10° 10:54:22 10° 12° (NNE) 2,727 6.3 -19.6°
Sets 10:56:53 0° 10° (N) 3,672 7.0 -19.1°
